Time,TemperatureF,DewpointF,PressureIn,WindDirection,WindDirectionDegrees,WindSpeedMPH,WindSpeedGustMPH,Humidity,HourlyPrecipIn,Conditions,Clouds,dailyrainin,SoftwareType,DateUTC
2013-08-25 00:01:00,52.7,49.8,30.43,NW,324,0.0,1.0,90,0.00,,,0.00,Weather View 32 v70,2013-08-25 04:01:00,
2013-08-25 00:02:00,52.5,49.6,30.43,NW,315,0.0,1.0,90,0.00,,,0.00,Weather View 32 v70,2013-08-25 04:02:00,
2013-08-25 00:07:00,52.5,49.6,30.42,SW,215,1.0,1.0,90,0.00,,,0.00,Weather View 32 v70,2013-08-25 04:07:00,
2013-08-25 00:12:00,52.5,49.6,30.42,WNW,292,0.0,1.0,90,0.00,,,0.00,Weather View 32 v70,2013-08-25 04:12:00,
2013-08-25 00:17:00,52.7,49.8,30.42,WSW,258,0.0,1.0,90,0.00,,,0.00,Weather View 32 v70,2013-08-25 04:17:00,
2013-08-25 00:22:00,52.1,49.2,30.42,West,274,0.0,1.0,90,0.00,,,0.00,Weather View 32 v70,2013-08-25 04:22:00,
2013-08-25 00:27:00,51.8,49.0,30.42,NW,316,0.0,1.0,90,0.00,,,0.00,Weather View 32 v70,2013-08-25 04:27:00,
2013-08-25 00:32:00,51.8,49.0,30.42,WSW,243,0.0,1.0,90,0.00,,,0.00,Weather View 32 v70,2013-08-25 04:32:00,
2013-08-25 00:37:00,51.6,48.8,30.42,East,82,0.0,1.0,90,0.00,,,0.00,Weather View 32 v70,2013-08-25 04:37:00,
2013-08-25 00:42:00,51.4,48.6,30.42,WSW,242,0.0,1.0,90,0.00,,,0.00,Weather View 32 v70,2013-08-25 04:42:00,
2013-08-25 00:47:00,51.4,48.6,30.42,NW,304,0.0,1.0,90,0.00,,,0.00,Weather View 32 v70,2013-08-25 04:47:00,
2013-08-25 00:52:00,51.4,48.6,30.42,NW,319,1.0,1.0,90,0.00,,,0.00,Weather View 32 v70,2013-08-25 04:52:00,
2013-08-25 00:57:00,51.0,48.2,30.42,SSW,200,1.0,1.0,90,0.00,,,0.00,Weather View 32 v70,2013-08-25 04:57:00,
2013-08-25 01:02:00,50.9,48.1,30.43,WSW,238,1.0,2.0,90,0.00,,,0.00,Weather View 32 v70,2013-08-25 05:02:00,
2013-08-25 01:07:00,51.0,48.5,30.43,WNW,289,0.0,2.0,91,0.00,,,0.00,Weather View 32 v70,2013-08-25 05:07:00,
2013-08-25 01:12:00,51.2,48.7,30.42,NNE,21,0.0,2.0,91,0.00,,,0.00,Weather View 32 v70,2013-08-25 05:12:00,
2013-08-25 01:17:00,50.9,48.4,30.42,NW,322,0.0,2.0,91,0.00,,,0.00,Weather View 32 v70,2013-08-25 05:17:00,
2013-08-25 01:22:00,50.7,48.2,30.42,West,259,0.0,2.0,91,0.00,,,0.00,Weather View 32 v70,2013-08-25 05:22:00,
2013-08-25 01:27:00,50.9,48.4,30.42,West,271,0.0,2.0,91,0.00,,,0.00,Weather View 32 v70,2013-08-25 05:27:00,
2013-08-25 01:32:00,50.3,47.8,30.42,North,357,0.0,2.0,91,0.00,,,0.00,Weather View 32 v70,2013-08-25 05:32:00,
2013-08-25 01:37:00,50.5,48.0,30.42,NW,312,0.0,2.0,91,0.00,,,0.00,Weather View 32 v70,2013-08-25 05:37:00,
2013-08-25 01:42:00,50.3,47.8,30.42,NW,311,0.0,2.0,91,0.00,,,0.00,Weather View 32 v70,2013-08-25 05:42:00,
2013-08-25 01:47:00,50.3,47.8,30.42,WNW,288,0.0,2.0,91,0.00,,,0.00,Weather View 32 v70,2013-08-25 05:47:00,
2013-08-25 01:52:00,50.3,47.8,30.42,WNW,296,0.0,2.0,91,0.00,,,0.00,Weather View 32 v70,2013-08-25 05:52:00,
2013-08-25 01:57:00,50.0,47.5,30.42,WSW,239,0.0,2.0,91,0.00,,,0.00,Weather View 32 v70,2013-08-25 05:57:00,
2013-08-25 02:02:00,50.0,47.5,30.42,WSW,258,0.0,1.0,91,0.00,,,0.00,Weather View 32 v70,2013-08-25 06:02:00,
2013-08-25 02:07:00,50.0,47.5,30.43,NNW,331,0.0,1.0,91,0.00,,,0.00,Weather View 32 v70,2013-08-25 06:07:00,
2013-08-25 02:12:00,49.8,47.3,30.42,NW,307,0.0,1.0,91,0.00,,,0.00,Weather View 32 v70,2013-08-25 06:12:00,
2013-08-25 02:17:00,49.8,47.3,30.42,East,83,0.0,1.0,91,0.00,,,0.00,Weather View 32 v70,2013-08-25 06:17:00,
2013-08-25 02:22:00,49.8,47.3,30.42,NE,45,0.0,1.0,91,0.00,,,0.00,Weather View 32 v70,2013-08-25 06:22:00,
2013-08-25 02:27:00,49.6,47.1,30.42,WSW,247,0.0,1.0,91,0.00,,,0.00,Weather View 32 v70,2013-08-25 06:27:00,
2013-08-25 02:32:00,49.6,47.1,30.42,SE,135,0.0,1.0,91,0.00,,,0.00,Weather View 32 v70,2013-08-25 06:32:00,
2013-08-25 02:37:00,49.8,47.3,30.42,ESE,114,0.0,1.0,91,0.00,,,0.00,Weather View 32 v70,2013-08-25 06:37:00,
2013-08-25 02:42:00,49.6,47.1,30.42,WSW,237,0.0,1.0,91,0.00,,,0.00,Weather View 32 v70,2013-08-25 06:42:00,
2013-08-25 02:47:00,49.6,47.1,30.42,SW,226,0.0,1.0,91,0.00,,,0.00,Weather View 32 v70,2013-08-25 06:47:00,
2013-08-25 02:52:00,49.6,47.1,30.42,NNW,336,1.0,1.0,91,0.00,,,0.00,Weather View 32 v70,2013-08-25 06:52:00,
2013-08-25 02:57:00,49.8,47.3,30.43,SW,232,1.0,1.0,91,0.00,,,0.00,Weather View 32 v70,2013-08-25 06:57:00,
2013-08-25 03:02:00,49.8,47.3,30.43,West,265,1.0,2.0,91,0.00,,,0.00,Weather View 32 v70,2013-08-25 07:02:00,
2013-08-25 03:07:00,49.8,47.6,30.43,NW,313,0.0,2.0,92,0.00,,,0.00,Weather View 32 v70,2013-08-25 07:07:00,
2013-08-25 03:13:00,49.8,47.6,30.43,NW,323,1.0,2.0,92,0.00,,,0.00,Weather View 32 v70,2013-08-25 07:13:00,
2013-08-25 03:18:00,49.6,47.4,30.43,NNW,330,0.0,2.0,92,0.00,,,0.00,Weather View 32 v70,2013-08-25 07:18:00,
2013-08-25 03:23:00,49.6,47.4,30.43,SW,215,0.0,2.0,92,0.00,,,0.00,Weather View 32 v70,2013-08-25 07:23:00,
2013-08-25 03:28:00,49.1,46.9,30.43,NNW,344,0.0,2.0,92,0.00,,,0.00,Weather View 32 v70,2013-08-25 07:28:00,
2013-08-25 03:33:00,49.1,46.9,30.43,NNW,345,0.0,2.0,92,0.00,,,0.00,Weather View 32 v70,2013-08-25 07:33:00,
2013-08-25 03:38:00,49.1,46.9,30.44,WNW,296,0.0,2.0,92,0.00,,,0.00,Weather View 32 v70,2013-08-25 07:38:00,
2013-08-25 03:43:00,49.2,47.0,30.44,SW,214,1.0,2.0,92,0.00,,,0.00,Weather View 32 v70,2013-08-25 07:43:00,
2013-08-25 03:48:00,48.5,46.3,30.45,West,281,1.0,2.0,92,0.00,,,0.00,Weather View 32 v70,2013-08-25 07:48:00,
2013-08-25 03:53:00,49.1,46.9,30.44,ESE,122,0.0,2.0,92,0.00,,,0.00,Weather View 32 v70,2013-08-25 07:53:00,
2013-08-25 03:58:00,49.1,46.9,30.44,WNW,298,0.0,2.0,92,0.00,,,0.00,Weather View 32 v70,2013-08-25 07:58:00,
2013-08-25 04:03:00,49.2,47.0,30.44,SSW,207,0.0,2.0,92,0.00,,,0.00,Weather View 32 v70,2013-08-25 08:03:00,
2013-08-25 04:08:00,49.2,47.0,30.45,North,352,1.0,2.0,92,0.00,,,0.00,Weather View 32 v70,2013-08-25 08:08:00,
2013-08-25 04:13:00,49.2,47.0,30.45,SW,219,2.0,2.0,92,0.00,,,0.00,Weather View 32 v70,2013-08-25 08:13:00,
2013-08-25 04:18:00,48.9,46.7,30.45,WNW,292,0.0,2.0,92,0.00,,,0.00,Weather View 32 v70,2013-08-25 08:18:00,
2013-08-25 04:23:00,48.9,46.7,30.45,SW,225,1.0,2.0,92,0.00,,,0.00,Weather View 32 v70,2013-08-25 08:23:00,
2013-08-25 04:28:00,49.1,46.9,30.45,East,85,0.0,2.0,92,0.00,,,0.00,Weather View 32 v70,2013-08-25 08:28:00,
2013-08-25 04:33:00,49.1,46.9,30.45,NNW,348,0.0,2.0,92,0.00,,,0.00,Weather View 32 v70,2013-08-25 08:33:00,
2013-08-25 04:38:00,48.9,46.7,30.45,SW,235,0.0,2.0,92,0.00,,,0.00,Weather View 32 v70,2013-08-25 08:38:00,
2013-08-25 04:43:00,48.9,46.7,30.45,WNW,290,0.0,2.0,92,0.00,,,0.00,Weather View 32 v70,2013-08-25 08:43:00,
2013-08-25 04:48:00,48.9,46.7,30.45,SW,215,0.0,2.0,92,0.00,,,0.00,Weather View 32 v70,2013-08-25 08:48:00,
2013-08-25 04:53:00,48.5,46.6,30.45,West,281,0.0,2.0,93,0.00,,,0.00,Weather View 32 v70,2013-08-25 08:53:00,
2013-08-25 04:58:00,48.2,46.3,30.45,NW,307,0.0,2.0,93,0.00,,,0.00,Weather View 32 v70,2013-08-25 08:58:00,
2013-08-25 05:03:00,47.8,45.9,30.45,SE,135,0.0,2.0,93,0.00,,,0.00,Weather View 32 v70,2013-08-25 09:03:00,
2013-08-25 05:08:00,47.8,45.9,30.45,South,176,0.0,2.0,93,0.00,,,0.00,Weather View 32 v70,2013-08-25 09:08:00,
2013-08-25 05:13:00,48.0,46.1,30.45,SW,236,0.0,2.0,93,0.00,,,0.00,Weather View 32 v70,2013-08-25 09:13:00,
2013-08-25 05:18:00,47.8,45.9,30.45,NNW,344,1.0,2.0,93,0.00,,,0.00,Weather View 32 v70,2013-08-25 09:18:00,
2013-08-25 05:23:00,48.0,46.1,30.45,South,178,0.0,2.0,93,0.00,,,0.00,Weather View 32 v70,2013-08-25 09:23:00,
2013-08-25 05:28:00,48.0,46.1,30.45,West,279,0.0,2.0,93,0.00,,,0.00,Weather View 32 v70,2013-08-25 09:28:00,
2013-08-25 05:33:00,48.0,46.1,30.45,NW,316,1.0,2.0,93,0.00,,,0.00,Weather View 32 v70,2013-08-25 09:33:00,
2013-08-25 05:38:00,47.6,45.7,30.45,WSW,256,1.0,2.0,93,0.00,,,0.00,Weather View 32 v70,2013-08-25 09:38:00,
2013-08-25 05:43:00,47.8,45.9,30.45,WNW,295,0.0,2.0,93,0.00,,,0.00,Weather View 32 v70,2013-08-25 09:43:00,
2013-08-25 05:48:00,47.6,45.7,30.45,ESE,111,0.0,2.0,93,0.00,,,0.00,Weather View 32 v70,2013-08-25 09:48:00,
2013-08-25 05:53:00,47.6,45.7,30.45,SW,236,0.0,2.0,93,0.00,,,0.00,Weather View 32 v70,2013-08-25 09:53:00,
2013-08-25 05:58:00,47.3,45.4,30.45,NE,39,0.0,2.0,93,0.00,,,0.00,Weather View 32 v70,2013-08-25 09:58:00,
2013-08-25 06:03:00,47.6,45.7,30.46,NNW,339,0.0,2.0,93,0.00,,,0.00,Weather View 32 v70,2013-08-25 10:03:00,
2013-08-25 06:08:00,47.3,45.4,30.46,SW,228,2.0,2.0,93,0.00,,,0.00,Weather View 32 v70,2013-08-25 10:08:00,
2013-08-25 06:13:00,47.4,45.5,30.46,NE,56,0.0,2.0,93,0.00,,,0.00,Weather View 32 v70,2013-08-25 10:13:00,
2013-08-25 06:18:00,47.4,45.5,30.46,East,101,0.0,2.0,93,0.00,,,0.00,Weather View 32 v70,2013-08-25 10:18:00,
2013-08-25 06:23:00,47.4,45.5,30.46,SSW,199,0.0,2.0,93,0.00,,,0.00,Weather View 32 v70,2013-08-25 10:23:00,
2013-08-25 06:28:00,47.4,45.5,30.46,West,271,0.0,2.0,93,0.00,,,0.00,Weather View 32 v70,2013-08-25 10:28:00,
2013-08-25 06:33:00,48.0,46.1,30.46,WSW,242,1.0,2.0,93,0.00,,,0.00,Weather View 32 v70,2013-08-25 10:33:00,
2013-08-25 06:38:00,47.8,45.9,30.47,NNW,346,0.0,2.0,93,0.00,,,0.00,Weather View 32 v70,2013-08-25 10:38:00,
2013-08-25 06:43:00,47.4,45.5,30.47,West,259,0.0,2.0,93,0.00,,,0.00,Weather View 32 v70,2013-08-25 10:43:00,
2013-08-25 06:48:00,47.4,45.5,30.47,ENE,76,0.0,2.0,93,0.00,,,0.00,Weather View 32 v70,2013-08-25 10:48:00,
2013-08-25 06:53:00,48.0,46.1,30.47,North,3,0.0,2.0,93,0.00,,,0.00,Weather View 32 v70,2013-08-25 10:53:00,
2013-08-25 06:58:00,48.9,47.0,30.47,NW,316,0.0,2.0,93,0.00,,,0.00,Weather View 32 v70,2013-08-25 10:58:00,
2013-08-25 07:03:00,49.2,47.3,30.47,NNE,12,0.0,2.0,93,0.00,,,0.00,Weather View 32 v70,2013-08-25 11:03:00,
2013-08-25 07:08:00,49.6,47.7,30.47,South,191,0.0,2.0,93,0.00,,,0.00,Weather View 32 v70,2013-08-25 11:08:00,
2013-08-25 07:13:00,50.0,48.1,30.47,SSW,203,1.0,2.0,93,0.00,,,0.00,Weather View 32 v70,2013-08-25 11:13:00,
2013-08-25 07:18:00,50.3,48.3,30.46,NNE,19,0.0,2.0,93,0.00,,,0.00,Weather View 32 v70,2013-08-25 11:18:00,
2013-08-25 07:23:00,50.7,48.7,30.47,NNW,346,0.0,2.0,93,0.00,,,0.00,Weather View 32 v70,2013-08-25 11:23:00,
2013-08-25 07:28:00,51.6,49.6,30.46,WSW,251,0.0,2.0,93,0.00,,,0.00,Weather View 32 v70,2013-08-25 11:28:00,
2013-08-25 07:33:00,53.0,51.0,30.46,WSW,250,0.0,2.0,93,0.00,,,0.00,Weather View 32 v70,2013-08-25 11:33:00,
2013-08-25 07:38:00,53.7,51.7,30.45,ESE,113,0.0,2.0,93,0.00,,,0.00,Weather View 32 v70,2013-08-25 11:38:00,
2013-08-25 07:43:00,54.5,52.8,30.45,East,86,0.0,2.0,94,0.00,,,0.00,Weather View 32 v70,2013-08-25 11:43:00,
2013-08-25 07:48:00,55.0,53.3,30.45,South,186,0.0,2.0,94,0.00,,,0.00,Weather View 32 v70,2013-08-25 11:48:00,
2013-08-25 07:53:00,55.9,54.2,30.45,South,172,1.0,2.0,94,0.00,,,0.00,Weather View 32 v70,2013-08-25 11:53:00,
2013-08-25 07:58:00,56.1,54.4,30.44,SSW,193,1.0,2.0,94,0.00,,,0.00,Weather View 32 v70,2013-08-25 11:58:00,
2013-08-25 08:03:00,56.8,55.1,30.43,NNE,19,0.0,2.0,94,0.00,,,0.00,Weather View 32 v70,2013-08-25 12:03:00,
2013-08-25 08:08:00,57.5,55.5,30.43,SW,231,1.0,2.0,93,0.00,,,0.00,Weather View 32 v70,2013-08-25 12:08:00,
2013-08-25 08:13:00,58.2,56.2,30.44,WNW,288,1.0,2.0,93,0.00,,,0.00,Weather View 32 v70,2013-08-25 12:13:00,
2013-08-25 08:18:00,58.6,56.3,30.44,North,349,2.0,3.0,92,0.00,,,0.00,Weather View 32 v70,2013-08-25 12:18:00,
2013-08-25 08:23:00,59.3,56.7,30.43,NNE,30,1.0,3.0,91,0.00,,,0.00,Weather View 32 v70,2013-08-25 12:23:00,
2013-08-25 08:28:00,59.9,56.6,30.43,North,5,1.0,3.0,89,0.00,,,0.00,Weather View 32 v70,2013-08-25 12:28:00,
2013-08-25 08:33:00,60.8,57.2,30.42,SSW,209,2.0,3.0,88,0.00,,,0.00,Weather View 32 v70,2013-08-25 12:33:00,
2013-08-25 08:38:00,61.3,54.4,30.42,ESE,119,2.0,3.0,78,0.00,,,0.00,Weather View 32 v70,2013-08-25 12:38:00,
2013-08-25 08:43:00,62.4,55.8,30.42,NE,51,1.0,3.0,79,0.00,,,0.00,Weather View 32 v70,2013-08-25 12:43:00,
2013-08-25 08:48:00,63.1,55.8,30.41,WNW,288,2.0,3.0,77,0.00,,,0.00,Weather View 32 v70,2013-08-25 12:48:00,
2013-08-25 08:53:00,64.0,57.0,30.41,ESE,119,1.0,3.0,78,0.00,,,0.00,Weather View 32 v70,2013-08-25 12:53:00,
2013-08-25 08:58:00,65.1,57.0,30.41,WNW,290,0.0,3.0,75,0.00,,,0.00,Weather View 32 v70,2013-08-25 12:58:00,
2013-08-25 09:03:00,65.3,57.1,30.41,ESE,118,3.0,3.0,75,0.00,,,0.00,Weather View 32 v70,2013-08-25 13:03:00,
2013-08-25 09:08:00,65.4,56.5,30.40,NE,41,1.0,3.0,73,0.00,,,0.00,Weather View 32 v70,2013-08-25 13:08:00,
2013-08-25 09:13:00,65.8,56.9,30.40,South,188,0.0,4.0,73,0.00,,,0.00,Weather View 32 v70,2013-08-25 13:13:00,
2013-08-25 09:18:00,66.0,57.1,30.40,SSW,202,0.0,4.0,73,0.00,,,0.00,Weather View 32 v70,2013-08-25 13:18:00,
2013-08-25 09:23:00,66.2,56.5,30.39,SW,230,2.0,4.0,71,0.00,,,0.00,Weather View 32 v70,2013-08-25 13:23:00,
2013-08-25 09:28:00,66.2,57.3,30.38,ESE,110,2.0,4.0,73,0.00,,,0.00,Weather View 32 v70,2013-08-25 13:28:00,
2013-08-25 09:33:00,66.9,59.1,30.38,ENE,68,2.0,4.0,76,0.00,,,0.00,Weather View 32 v70,2013-08-25 13:33:00,
2013-08-25 09:38:00,67.8,58.4,30.38,SSE,147,2.0,4.0,72,0.00,,,0.00,Weather View 32 v70,2013-08-25 13:38:00,
2013-08-25 09:43:00,67.4,58.4,30.38,SSE,168,3.0,4.0,73,0.00,,,0.00,Weather View 32 v70,2013-08-25 13:43:00,
2013-08-25 09:48:00,67.6,58.2,30.38,SSE,150,2.0,4.0,72,0.00,,,0.00,Weather View 32 v70,2013-08-25 13:48:00,
2013-08-25 09:53:00,67.8,57.6,30.38,South,185,1.0,4.0,70,0.00,,,0.00,Weather View 32 v70,2013-08-25 13:53:00,
2013-08-25 09:58:00,68.1,57.9,30.37,East,95,2.0,4.0,70,0.00,,,0.00,Weather View 32 v70,2013-08-25 13:58:00,
2013-08-25 10:03:00,69.0,57.6,30.37,NE,37,2.0,4.0,67,0.00,,,0.00,Weather View 32 v70,2013-08-25 14:03:00,
2013-08-25 10:08:00,69.6,58.9,30.37,ENE,71,1.0,4.0,69,0.00,,,0.00,Weather View 32 v70,2013-08-25 14:08:00,
2013-08-25 10:13:00,70.1,58.2,30.36,ESE,109,1.0,4.0,66,0.00,,,0.00,Weather View 32 v70,2013-08-25 14:13:00,
2013-08-25 10:18:00,70.7,57.9,30.36,SE,141,2.0,4.0,64,0.00,,,0.00,Weather View 32 v70,2013-08-25 14:18:00,
2013-08-25 10:23:00,70.7,57.4,30.36,WSW,247,1.0,4.0,63,0.00,,,0.00,Weather View 32 v70,2013-08-25 14:23:00,
2013-08-25 10:28:00,70.8,58.8,30.36,South,170,2.0,4.0,66,0.00,,,0.00,Weather View 32 v70,2013-08-25 14:28:00,
2013-08-25 10:33:00,71.0,57.7,30.35,South,179,4.0,5.0,63,0.00,,,0.00,Weather View 32 v70,2013-08-25 14:33:00,
2013-08-25 10:38:00,71.0,59.0,30.35,SE,135,3.0,5.0,66,0.00,,,0.00,Weather View 32 v70,2013-08-25 14:38:00,
2013-08-25 10:43:00,71.4,58.5,30.35,SE,125,2.0,5.0,64,0.00,,,0.00,Weather View 32 v70,2013-08-25 14:43:00,
2013-08-25 10:48:00,71.4,59.4,30.35,NW,311,1.0,5.0,66,0.00,,,0.00,Weather View 32 v70,2013-08-25 14:48:00,
2013-08-25 10:53:00,72.1,58.8,30.34,SW,224,3.0,5.0,63,0.00,,,0.00,Weather View 32 v70,2013-08-25 14:53:00,
2013-08-25 10:58:00,72.5,60.0,30.34,ESE,114,1.0,5.0,65,0.00,,,0.00,Weather View 32 v70,2013-08-25 14:58:00,
2013-08-25 11:03:00,73.4,59.5,30.33,South,189,1.0,5.0,62,0.00,,,0.00,Weather View 32 v70,2013-08-25 15:03:00,
2013-08-25 11:08:00,73.9,59.1,30.33,SE,132,3.0,5.0,60,0.00,,,0.00,Weather View 32 v70,2013-08-25 15:08:00,
2013-08-25 11:13:00,74.4,59.1,30.32,ESE,108,2.0,5.0,59,0.00,,,0.00,Weather View 32 v70,2013-08-25 15:13:00,
2013-08-25 11:18:00,74.1,59.3,30.32,SSE,148,2.0,6.0,60,0.00,,,0.00,Weather View 32 v70,2013-08-25 15:18:00,
2013-08-25 11:23:00,74.3,58.5,30.32,SSW,212,4.0,6.0,58,0.00,,,0.00,Weather View 32 v70,2013-08-25 15:23:00,
2013-08-25 11:28:00,74.3,59.5,30.32,South,182,2.0,6.0,60,0.00,,,0.00,Weather View 32 v70,2013-08-25 15:28:00,
2013-08-25 11:33:00,74.6,57.3,30.32,South,179,3.0,6.0,55,0.00,,,0.00,Weather View 32 v70,2013-08-25 15:33:00,
2013-08-25 11:38:00,74.6,59.3,30.31,SSE,156,3.0,6.0,59,0.00,,,0.00,Weather View 32 v70,2013-08-25 15:38:00,
2013-08-25 11:43:00,74.8,59.0,30.31,SSE,165,2.0,6.0,58,0.00,,,0.00,Weather View 32 v70,2013-08-25 15:43:00,
2013-08-25 11:48:00,75.2,58.9,30.30,ESE,122,4.0,6.0,57,0.00,,,0.00,Weather View 32 v70,2013-08-25 15:48:00,
2013-08-25 11:53:00,75.2,59.8,30.30,SSE,152,4.0,6.0,59,0.00,,,0.00,Weather View 32 v70,2013-08-25 15:53:00,
2013-08-25 11:58:00,75.9,61.0,30.30,SSE,160,3.0,6.0,60,0.00,,,0.00,Weather View 32 v70,2013-08-25 15:58:00,
2013-08-25 12:03:00,76.2,60.3,30.29,SE,146,1.0,6.0,58,0.00,,,0.00,Weather View 32 v70,2013-08-25 16:03:00,
2013-08-25 12:08:00,76.4,60.5,30.29,SE,134,2.0,8.0,58,0.00,,,0.00,Weather View 32 v70,2013-08-25 16:08:00,
2013-08-25 12:13:00,76.4,60.5,30.29,ESE,113,3.0,8.0,58,0.00,,,0.00,Weather View 32 v70,2013-08-25 16:13:00,
2013-08-25 12:18:00,77.0,61.5,30.29,ESE,103,4.0,8.0,59,0.00,,,0.00,Weather View 32 v70,2013-08-25 16:18:00,
2013-08-25 12:23:00,76.8,59.9,30.29,SSE,151,4.0,8.0,56,0.00,,,0.00,Weather View 32 v70,2013-08-25 16:23:00,
2013-08-25 12:28:00,77.0,61.5,30.29,ENE,70,3.0,8.0,59,0.00,,,0.00,Weather View 32 v70,2013-08-25 16:28:00,
2013-08-25 12:33:00,77.9,60.9,30.28,SW,215,2.0,8.0,56,0.00,,,0.00,Weather View 32 v70,2013-08-25 16:33:00,
2013-08-25 12:38:00,78.0,60.0,30.28,ESE,106,4.0,8.0,54,0.00,,,0.00,Weather View 32 v70,2013-08-25 16:38:00,
2013-08-25 12:43:00,77.9,60.9,30.28,ESE,104,3.0,8.0,56,0.00,,,0.00,Weather View 32 v70,2013-08-25 16:43:00,
2013-08-25 12:48:00,78.0,60.5,30.27,SSE,167,4.0,8.0,55,0.00,,,0.00,Weather View 32 v70,2013-08-25 16:48:00,
2013-08-25 12:53:00,78.6,61.0,30.28,South,191,3.0,8.0,55,0.00,,,0.00,Weather View 32 v70,2013-08-25 16:53:00,
2013-08-25 12:58:00,78.9,59.7,30.27,SE,130,2.0,8.0,52,0.00,,,0.00,Weather View 32 v70,2013-08-25 16:58:00,
2013-08-25 13:03:00,78.9,60.3,30.27,SSW,201,5.0,8.0,53,0.00,,,0.00,Weather View 32 v70,2013-08-25 17:03:00,
2013-08-25 13:08:00,79.3,61.2,30.27,South,190,1.0,7.0,54,0.00,,,0.00,Weather View 32 v70,2013-08-25 17:08:00,
2013-08-25 13:13:00,80.0,62.8,30.27,NNE,28,1.0,7.0,56,0.00,,,0.00,Weather View 32 v70,2013-08-25 17:13:00,
2013-08-25 13:18:00,80.4,60.5,30.26,SE,135,3.0,7.0,51,0.00,,,0.00,Weather View 32 v70,2013-08-25 17:18:00,
2013-08-25 13:23:00,79.7,58.8,30.26,ESE,109,2.0,7.0,49,0.00,,,0.00,Weather View 32 v70,2013-08-25 17:23:00,
2013-08-25 13:28:00,80.0,59.6,30.26,SE,127,4.0,7.0,50,0.00,,,0.00,Weather View 32 v70,2013-08-25 17:28:00,
2013-08-25 13:33:00,80.6,60.7,30.26,ENE,67,0.0,7.0,51,0.00,,,0.00,Weather View 32 v70,2013-08-25 17:33:00,
2013-08-25 13:38:00,81.1,59.5,30.25,NE,34,2.0,7.0,48,0.00,,,0.00,Weather View 32 v70,2013-08-25 17:38:00,
2013-08-25 13:43:00,81.1,60.1,30.25,East,92,1.0,7.0,49,0.00,,,0.00,Weather View 32 v70,2013-08-25 17:43:00,
2013-08-25 13:48:00,80.7,60.3,30.25,East,99,1.0,7.0,50,0.00,,,0.00,Weather View 32 v70,2013-08-25 17:48:00,
2013-08-25 13:53:00,81.3,61.4,30.24,NNE,17,3.0,7.0,51,0.00,,,0.00,Weather View 32 v70,2013-08-25 17:53:00,
2013-08-25 13:58:00,81.1,59.5,30.24,ESE,114,4.0,7.0,48,0.00,,,0.00,Weather View 32 v70,2013-08-25 17:58:00,
2013-08-25 14:03:00,81.5,61.0,30.24,SSE,157,1.0,8.0,50,0.00,,,0.00,Weather View 32 v70,2013-08-25 18:03:00,
2013-08-25 14:08:00,81.6,59.9,30.24,East,97,4.0,8.0,48,0.00,,,0.00,Weather View 32 v70,2013-08-25 18:08:00,
2013-08-25 14:13:00,82.2,61.1,30.24,WNW,289,1.0,8.0,49,0.00,,,0.00,Weather View 32 v70,2013-08-25 18:13:00,
2013-08-25 14:18:00,82.2,59.9,30.23,SW,228,5.0,8.0,47,0.00,,,0.00,Weather View 32 v70,2013-08-25 18:18:00,
2013-08-25 14:23:00,81.8,60.7,30.23,SE,145,4.0,8.0,49,0.00,,,0.00,Weather View 32 v70,2013-08-25 18:23:00,
2013-08-25 14:28:00,82.0,59.7,30.23,ENE,57,2.0,8.0,47,0.00,,,0.00,Weather View 32 v70,2013-08-25 18:28:00,
2013-08-25 14:33:00,81.8,60.7,30.24,SSE,168,2.0,8.0,49,0.00,,,0.00,Weather View 32 v70,2013-08-25 18:33:00,
2013-08-25 14:38:00,81.5,61.0,30.23,ESE,116,2.0,8.0,50,0.00,,,0.00,Weather View 32 v70,2013-08-25 18:38:00,
2013-08-25 14:43:00,82.2,61.1,30.23,SE,136,4.0,8.0,49,0.00,,,0.00,Weather View 32 v70,2013-08-25 18:43:00,
2013-08-25 14:48:00,82.0,59.7,30.23,ENE,67,4.0,8.0,47,0.00,,,0.00,Weather View 32 v70,2013-08-25 18:48:00,
2013-08-25 14:53:00,81.8,60.1,30.23,East,97,6.0,8.0,48,0.00,,,0.00,Weather View 32 v70,2013-08-25 18:53:00,
2013-08-25 14:58:00,82.2,61.1,30.22,SSE,163,3.0,8.0,49,0.00,,,0.00,Weather View 32 v70,2013-08-25 18:58:00,
2013-08-25 15:03:00,82.2,59.3,30.22,SE,124,3.0,7.0,46,0.00,,,0.00,Weather View 32 v70,2013-08-25 19:03:00,
2013-08-25 15:08:00,81.8,60.1,30.23,SW,219,2.0,10.0,48,0.00,,,0.00,Weather View 32 v70,2013-08-25 19:08:00,
2013-08-25 15:13:00,81.6,59.3,30.23,SSE,159,3.0,10.0,47,0.00,,,0.00,Weather View 32 v70,2013-08-25 19:13:00,
2013-08-25 15:18:00,81.5,60.4,30.22,SSE,153,3.0,10.0,49,0.00,,,0.00,Weather View 32 v70,2013-08-25 19:18:00,
2013-08-25 15:23:00,82.0,60.3,30.23,SE,136,3.0,10.0,48,0.00,,,0.00,Weather View 32 v70,2013-08-25 19:23:00,
2013-08-25 15:28:00,82.2,59.9,30.22,South,186,1.0,10.0,47,0.00,,,0.00,Weather View 32 v70,2013-08-25 19:28:00,
2013-08-25 15:33:00,82.4,60.1,30.22,SE,131,3.0,10.0,47,0.00,,,0.00,Weather View 32 v70,2013-08-25 19:33:00,
2013-08-25 15:38:00,82.0,59.7,30.22,ESE,105,4.0,10.0,47,0.00,,,0.00,Weather View 32 v70,2013-08-25 19:38:00,
2013-08-25 15:43:00,81.6,59.3,30.23,NNE,33,2.0,10.0,47,0.00,,,0.00,Weather View 32 v70,2013-08-25 19:43:00,
2013-08-25 15:48:00,81.8,58.9,30.23,SE,126,2.0,10.0,46,0.00,,,0.00,Weather View 32 v70,2013-08-25 19:48:00,
2013-08-25 15:53:00,81.6,59.3,30.23,ENE,59,0.0,10.0,47,0.00,,,0.00,Weather View 32 v70,2013-08-25 19:53:00,
2013-08-25 15:58:00,81.5,58.0,30.22,East,83,5.0,10.0,45,0.00,,,0.00,Weather View 32 v70,2013-08-25 19:58:00,
2013-08-25 16:03:00,81.5,59.3,30.22,SE,134,2.0,10.0,47,0.00,,,0.00,Weather View 32 v70,2013-08-25 20:03:00,
2013-08-25 16:08:00,81.3,59.1,30.22,WNW,303,1.0,10.0,47,0.00,,,0.00,Weather View 32 v70,2013-08-25 20:08:00,
2013-08-25 16:13:00,81.6,59.3,30.22,SSE,153,2.0,10.0,47,0.00,,,0.00,Weather View 32 v70,2013-08-25 20:13:00,
2013-08-25 16:18:00,81.8,60.1,30.22,ENE,68,2.0,10.0,48,0.00,,,0.00,Weather View 32 v70,2013-08-25 20:18:00,
2013-08-25 16:23:00,81.6,58.1,30.22,ESE,121,4.0,10.0,45,0.00,,,0.00,Weather View 32 v70,2013-08-25 20:23:00,
2013-08-25 16:28:00,80.9,58.1,30.21,SE,126,4.0,10.0,46,0.00,,,0.00,Weather View 32 v70,2013-08-25 20:28:00,
2013-08-25 16:33:00,81.1,58.3,30.21,SE,138,3.0,10.0,46,0.00,,,0.00,Weather View 32 v70,2013-08-25 20:33:00,
2013-08-25 16:38:00,80.9,58.1,30.21,SE,139,4.0,10.0,46,0.00,,,0.00,Weather View 32 v70,2013-08-25 20:38:00,
2013-08-25 16:43:00,80.7,59.1,30.21,SE,140,2.0,7.0,48,0.00,,,0.00,Weather View 32 v70,2013-08-25 20:43:00,
2013-08-25 16:48:00,80.6,60.2,30.21,SE,126,2.0,7.0,50,0.00,,,0.00,Weather View 32 v70,2013-08-25 20:48:00,
2013-08-25 16:53:00,80.9,59.9,30.21,South,191,2.0,7.0,49,0.00,,,0.00,Weather View 32 v70,2013-08-25 20:53:00,
2013-08-25 16:58:00,81.1,58.9,30.20,South,177,4.0,7.0,47,0.00,,,0.00,Weather View 32 v70,2013-08-25 20:58:00,
2013-08-25 17:03:00,81.3,60.2,30.19,SE,143,3.0,7.0,49,0.00,,,0.00,Weather View 32 v70,2013-08-25 21:03:00,
2013-08-25 17:08:00,81.1,60.1,30.19,SW,230,2.0,7.0,49,0.00,,,0.00,Weather View 32 v70,2013-08-25 21:08:00,
2013-08-25 17:13:00,81.3,59.7,30.19,SSE,166,2.0,7.0,48,0.00,,,0.00,Weather View 32 v70,2013-08-25 21:13:00,
2013-08-25 17:18:00,81.3,60.2,30.19,SE,137,3.0,7.0,49,0.00,,,0.00,Weather View 32 v70,2013-08-25 21:18:00,
2013-08-25 17:23:00,81.3,59.1,30.19,SSW,206,3.0,7.0,47,0.00,,,0.00,Weather View 32 v70,2013-08-25 21:23:00,
2013-08-25 17:28:00,81.1,58.9,30.19,SSE,163,1.0,7.0,47,0.00,,,0.00,Weather View 32 v70,2013-08-25 21:28:00,
2013-08-25 17:33:00,81.1,59.5,30.19,SE,127,3.0,7.0,48,0.00,,,0.00,Weather View 32 v70,2013-08-25 21:33:00,
2013-08-25 17:38:00,81.1,58.3,30.19,SE,138,2.0,6.0,46,0.00,,,0.00,Weather View 32 v70,2013-08-25 21:38:00,
2013-08-25 17:43:00,81.3,61.9,30.18,SW,215,0.0,6.0,52,0.00,,,0.00,Weather View 32 v70,2013-08-25 21:43:00,
2013-08-25 17:48:00,80.9,59.3,30.18,SSW,209,0.0,6.0,48,0.00,,,0.00,Weather View 32 v70,2013-08-25 21:48:00,
2013-08-25 17:53:00,80.4,59.4,30.18,NNW,329,0.0,6.0,49,0.00,,,0.00,Weather View 32 v70,2013-08-25 21:53:00,
2013-08-25 17:58:00,79.8,58.9,30.18,NNW,333,1.0,6.0,49,0.00,,,0.00,Weather View 32 v70,2013-08-25 21:58:00,
2013-08-25 18:03:00,79.5,59.7,30.18,NNW,333,0.0,6.0,51,0.00,,,0.00,Weather View 32 v70,2013-08-25 22:03:00,
2013-08-25 18:08:00,78.9,61.8,30.18,NNW,332,0.0,5.0,56,0.00,,,0.00,Weather View 32 v70,2013-08-25 22:08:00,
2013-08-25 18:13:00,78.4,61.9,30.19,NNW,332,1.0,4.0,57,0.00,,,0.00,Weather View 32 v70,2013-08-25 22:13:00,
2013-08-25 18:18:00,77.7,63.1,30.19,NNW,332,0.0,4.0,61,0.00,,,0.00,Weather View 32 v70,2013-08-25 22:18:00,
2013-08-25 18:23:00,77.0,62.9,30.19,NNW,332,0.0,4.0,62,0.00,,,0.00,Weather View 32 v70,2013-08-25 22:23:00,
2013-08-25 18:28:00,76.4,63.3,30.19,NNW,332,0.0,4.0,64,0.00,,,0.00,Weather View 32 v70,2013-08-25 22:28:00,
2013-08-25 18:33:00,75.7,63.9,30.19,NNW,332,0.0,4.0,67,0.00,,,0.00,Weather View 32 v70,2013-08-25 22:33:00,
2013-08-25 18:38:00,74.8,65.1,30.19,SSW,202,0.0,4.0,72,0.00,,,0.00,Weather View 32 v70,2013-08-25 22:38:00,
2013-08-25 18:43:00,74.3,63.8,30.19,SSW,203,0.0,2.0,70,0.00,,,0.00,Weather View 32 v70,2013-08-25 22:43:00,
2013-08-25 18:48:00,73.9,63.9,30.19,SSW,203,0.0,2.0,71,0.00,,,0.00,Weather View 32 v70,2013-08-25 22:48:00,
2013-08-25 18:53:00,73.5,63.9,30.19,SSW,203,0.0,2.0,72,0.00,,,0.00,Weather View 32 v70,2013-08-25 22:53:00,
2013-08-25 18:58:00,73.2,64.4,30.20,SSW,205,0.0,2.0,74,0.00,,,0.00,Weather View 32 v70,2013-08-25 22:58:00,
2013-08-25 19:03:00,72.6,63.4,30.20,SSW,210,0.0,2.0,73,0.00,,,0.00,Weather View 32 v70,2013-08-25 23:03:00,
2013-08-25 19:08:00,72.1,63.3,30.20,SSW,211,0.0,2.0,74,0.00,,,0.00,Weather View 32 v70,2013-08-25 23:08:00,
2013-08-25 19:13:00,71.7,62.2,30.20,SSW,208,1.0,2.0,72,0.00,,,0.00,Weather View 32 v70,2013-08-25 23:13:00,
2013-08-25 19:19:00,71.4,63.0,30.20,SW,215,0.0,2.0,75,0.00,,,0.00,Weather View 32 v70,2013-08-25 23:19:00,
2013-08-25 19:24:00,71.0,63.0,30.20,SSW,213,1.0,2.0,76,0.00,,,0.00,Weather View 32 v70,2013-08-25 23:24:00,
2013-08-25 19:29:00,70.8,63.6,30.21,SSW,206,0.0,2.0,78,0.00,,,0.00,Weather View 32 v70,2013-08-25 23:29:00,
2013-08-25 19:34:00,70.3,63.1,30.20,SSE,151,0.0,2.0,78,0.00,,,0.00,Weather View 32 v70,2013-08-25 23:34:00,
2013-08-25 19:39:00,69.9,62.7,30.21,SW,234,0.0,2.0,78,0.00,,,0.00,Weather View 32 v70,2013-08-25 23:39:00,
2013-08-25 19:44:00,69.6,62.0,30.20,NW,304,0.0,2.0,77,0.00,,,0.00,Weather View 32 v70,2013-08-25 23:44:00,
2013-08-25 19:49:00,68.9,62.1,30.21,WSW,238,0.0,2.0,79,0.00,,,0.00,Weather View 32 v70,2013-08-25 23:49:00,
2013-08-25 19:54:00,68.3,61.5,30.21,WNW,291,0.0,2.0,79,0.00,,,0.00,Weather View 32 v70,2013-08-25 23:54:00,
2013-08-25 19:59:00,68.1,61.7,30.20,WSW,253,0.0,2.0,80,0.00,,,0.00,Weather View 32 v70,2013-08-25 23:59:00,
2013-08-25 20:04:00,67.6,61.5,30.21,SW,221,0.0,2.0,81,0.00,,,0.00,Weather View 32 v70,2013-08-26 00:04:00,
2013-08-25 20:09:00,67.1,61.4,30.21,SSW,200,0.0,2.0,82,0.00,,,0.00,Weather View 32 v70,2013-08-26 00:09:00,
2013-08-25 20:14:00,66.7,61.0,30.21,West,275,0.0,2.0,82,0.00,,,0.00,Weather View 32 v70,2013-08-26 00:14:00,
2013-08-25 20:19:00,66.3,61.0,30.21,NNW,341,0.0,1.0,83,0.00,,,0.00,Weather View 32 v70,2013-08-26 00:19:00,
2013-08-25 20:24:00,66.3,61.0,30.21,South,170,0.0,1.0,83,0.00,,,0.00,Weather View 32 v70,2013-08-26 00:24:00,
2013-08-25 20:29:00,66.2,61.2,30.20,South,183,0.0,1.0,84,0.00,,,0.00,Weather View 32 v70,2013-08-26 00:29:00,
2013-08-25 20:34:00,66.2,61.5,30.20,SSW,201,1.0,1.0,85,0.00,,,0.00,Weather View 32 v70,2013-08-26 00:34:00,
2013-08-25 20:39:00,66.0,61.3,30.20,South,181,0.0,1.0,85,0.00,,,0.00,Weather View 32 v70,2013-08-26 00:39:00,
2013-08-25 20:44:00,66.0,61.3,30.20,NW,320,0.0,1.0,85,0.00,,,0.00,Weather View 32 v70,2013-08-26 00:44:00,
2013-08-25 20:49:00,66.0,61.3,30.21,ESE,116,0.0,1.0,85,0.00,,,0.00,Weather View 32 v70,2013-08-26 00:49:00,
2013-08-25 20:54:00,66.0,61.3,30.21,SW,218,0.0,1.0,85,0.00,,,0.00,Weather View 32 v70,2013-08-26 00:54:00,
2013-08-25 20:59:00,66.0,61.7,30.21,SW,236,0.0,1.0,86,0.00,,,0.00,Weather View 32 v70,2013-08-26 00:59:00,
2013-08-25 21:04:00,65.8,61.5,30.21,SSW,202,1.0,1.0,86,0.00,,,0.00,Weather View 32 v70,2013-08-26 01:04:00,
2013-08-25 21:09:00,65.8,61.5,30.21,NW,304,1.0,1.0,86,0.00,,,0.00,Weather View 32 v70,2013-08-26 01:09:00,
2013-08-25 21:14:00,65.6,61.0,30.21,NNW,333,1.0,1.0,85,0.00,,,0.00,Weather View 32 v70,2013-08-26 01:14:00,
2013-08-25 21:19:00,65.6,60.6,30.22,WSW,239,1.0,1.0,84,0.00,,,0.00,Weather View 32 v70,2013-08-26 01:19:00,
2013-08-25 21:24:00,65.6,60.6,30.21,SSW,205,0.0,1.0,84,0.00,,,0.00,Weather View 32 v70,2013-08-26 01:24:00,
2013-08-25 21:29:00,65.6,61.0,30.22,NNW,330,0.0,1.0,85,0.00,,,0.00,Weather View 32 v70,2013-08-26 01:29:00,
2013-08-25 21:34:00,65.6,61.0,30.21,ENE,75,0.0,1.0,85,0.00,,,0.00,Weather View 32 v70,2013-08-26 01:34:00,
2013-08-25 21:39:00,65.6,61.0,30.22,WNW,292,1.0,1.0,85,0.00,,,0.00,Weather View 32 v70,2013-08-26 01:39:00,
2013-08-25 21:44:00,65.6,61.0,30.21,WNW,294,0.0,1.0,85,0.00,,,0.00,Weather View 32 v70,2013-08-26 01:44:00,
2013-08-25 21:49:00,65.4,60.4,30.22,WNW,290,0.0,2.0,84,0.00,,,0.00,Weather View 32 v70,2013-08-26 01:49:00,
2013-08-25 21:54:00,65.4,60.1,30.21,SW,214,1.0,2.0,83,0.00,,,0.00,Weather View 32 v70,2013-08-26 01:54:00,
2013-08-25 21:59:00,65.8,60.8,30.21,South,169,1.0,2.0,84,0.00,,,0.00,Weather View 32 v70,2013-08-26 01:59:00,
2013-08-25 22:04:00,65.6,60.3,30.21,West,278,0.0,2.0,83,0.00,,,0.00,Weather View 32 v70,2013-08-26 02:04:00,
2013-08-25 22:09:00,65.8,60.5,30.22,ESE,118,1.0,2.0,83,0.00,,,0.00,Weather View 32 v70,2013-08-26 02:09:00,
2013-08-25 22:14:00,66.0,60.7,30.21,WSW,254,1.0,2.0,83,0.00,,,0.00,Weather View 32 v70,2013-08-26 02:14:00,
2013-08-25 22:19:00,66.0,60.3,30.21,SW,228,1.0,2.0,82,0.00,,,0.00,Weather View 32 v70,2013-08-26 02:19:00,
2013-08-25 22:24:00,66.0,60.0,30.21,South,188,1.0,2.0,81,0.00,,,0.00,Weather View 32 v70,2013-08-26 02:24:00,
2013-08-25 22:29:00,65.8,59.8,30.21,WSW,254,0.0,2.0,81,0.00,,,0.00,Weather View 32 v70,2013-08-26 02:29:00,
2013-08-25 22:34:00,65.6,59.6,30.22,NNW,348,0.0,2.0,81,0.00,,,0.00,Weather View 32 v70,2013-08-26 02:34:00,
2013-08-25 22:39:00,65.6,59.6,30.21,SSW,192,1.0,2.0,81,0.00,,,0.00,Weather View 32 v70,2013-08-26 02:39:00,
2013-08-25 22:44:00,65.4,59.4,30.21,West,262,0.0,2.0,81,0.00,,,0.00,Weather View 32 v70,2013-08-26 02:44:00,
2013-08-25 22:49:00,65.4,59.4,30.21,ENE,66,1.0,2.0,81,0.00,,,0.00,Weather View 32 v70,2013-08-26 02:49:00,
2013-08-25 22:54:00,65.4,59.0,30.21,SE,140,1.0,2.0,80,0.00,,,0.00,Weather View 32 v70,2013-08-26 02:54:00,
2013-08-25 22:59:00,65.4,59.4,30.21,North,6,1.0,2.0,81,0.00,,,0.00,Weather View 32 v70,2013-08-26 02:59:00,
2013-08-25 23:04:00,65.4,59.4,30.21,SSE,162,0.0,2.0,81,0.00,,,0.00,Weather View 32 v70,2013-08-26 03:04:00,
2013-08-25 23:09:00,65.4,59.7,30.21,NW,323,1.0,2.0,82,0.00,,,0.00,Weather View 32 v70,2013-08-26 03:09:00,
2013-08-25 23:14:00,65.4,60.1,30.21,North,356,0.0,2.0,83,0.00,,,0.00,Weather View 32 v70,2013-08-26 03:14:00,
2013-08-25 23:19:00,65.3,59.3,30.22,NNE,33,1.0,2.0,81,0.00,,,0.00,Weather View 32 v70,2013-08-26 03:19:00,
2013-08-25 23:24:00,65.3,59.6,30.21,NE,45,1.0,2.0,82,0.00,,,0.00,Weather View 32 v70,2013-08-26 03:24:00,
2013-08-25 23:29:00,65.3,59.3,30.21,NNE,18,1.0,2.0,81,0.00,,,0.00,Weather View 32 v70,2013-08-26 03:29:00,
2013-08-25 23:34:00,65.4,58.3,30.21,East,87,1.0,2.0,78,0.00,,,0.00,Weather View 32 v70,2013-08-26 03:34:00,
2013-08-25 23:39:00,65.8,58.0,30.21,NNE,18,0.0,2.0,76,0.00,,,0.00,Weather View 32 v70,2013-08-26 03:39:00,
2013-08-25 23:44:00,66.3,58.5,30.21,ESE,116,1.0,2.0,76,0.00,,,0.00,Weather View 32 v70,2013-08-26 03:44:00,
2013-08-25 23:49:00,66.5,58.7,30.21,ESE,109,2.0,2.0,76,0.00,,,0.00,Weather View 32 v70,2013-08-26 03:49:00,
2013-08-25 23:54:00,66.9,58.7,30.20,SSE,156,2.0,2.0,75,0.00,,,0.00,Weather View 32 v70,2013-08-26 03:54:00,
2013-08-25 23:59:00,67.4,58.4,30.21,SE,132,2.0,3.0,73,0.00,,,0.00,Weather View 32 v70,2013-08-26 03:59:00,